Welcome to the New NWS' Forecast!
Most changes are behind the scenes, but click here for differences you might notice.
Latest weather observations around

Huntsville, Madison County Executive Airport (KMDQ)

Using English Units (Switch to International System of Units)
Date/ Time (CDT) Wind (mph) Vis. (mi) Weather Sky Cond. Temp (°F) Rel. Humidity Wind Chill (°F) Heat Index (°F) Pressure Precip. (in)
Air Dwpt 6 hour Altimeter (inHg) Sea level (inHg) 1 hr 3 hr 6 hr
Max Min
Notice The following observation data may not be complete
Jul 19 08:15   10 Clear CLR          %              
Jul 19 07:55 Calm 10 Clear CLR 75 69     82%   76 30        
Jul 19 07:35 Calm 10 Clear CLR 73 69     86%   74 30        
Jul 19 07:15 Calm 10 Clear CLR 72 69     91%   73 29.99        
Jul 19 06:55 Calm 10 Clear CLR 70 67     92%     29.99        
Jul 19 06:35 Calm 10 Clear CLR 69 67     95%     29.98        
Jul 19 06:15 Calm 10 Clear CLR 68 67     96%     29.97        
Jul 19 05:55 Calm 5 Fog/Mist CLR 68 67     97%     29.97        
Jul 19 05:35 Calm 7 Fog/Mist CLR 67 67     98%     29.97        
Jul 19 05:15 Calm 10 Clear CLR 68 67     97%     29.95        
Jul 19 04:55 Calm 10 Clear CLR 68 67     97%     29.95        
Jul 19 04:35 Calm 7 Clear CLR 68 67     98%     29.94        
Jul 19 04:15 N 3 10 Clear CLR 68 67     96%     29.95        
Jul 19 03:55 Calm 7 Clear CLR 69 68     97%     29.94        
Jul 19 03:35 Calm 7 Clear CLR 70 68     96%     29.95        
Jul 19 03:15 Calm 10 Clear CLR 69 68     97%     29.95        
Jul 19 02:55 Calm 10 Clear CLR 69 68     97%     29.94        
Jul 19 02:35 Calm 10 Clear CLR 69 69     97%     29.95        
Jul 19 02:15 Calm   Clear   70 69     96%     29.95        
Jul 19 01:55 Calm 10 Clear CLR 70 69     96%     29.95        
Jul 19 01:35 Calm 10 Clear CLR 71 69     95%   72 29.96        
Jul 19 01:15 Calm 10 Clear CLR 72 69     90%   73 29.97        
Jul 19 00:55 Calm 10 Clear CLR 71 69     94%   72 29.97        
Jul 19 00:35 N 3 10 Clear CLR 72 70     92%   73 29.97        
Jul 19 00:15 NNW 3 10 Clear CLR 72 70     93%   73 29.98        
Jul 18 23:55 NNW 3 10 Clear CLR 71 70     96%   72 29.98        
Jul 18 23:35 Calm 10 Clear CLR 72 70     93%   73 29.99        
Jul 18 23:15 Calm 10 Clear CLR 73 70     92%   74 29.99        
Jul 18 22:55 Calm 10 Clear CLR 72 70     94%   74 29.98        
Jul 18 22:35 Calm 10 Clear CLR 73 71     92%   74 29.98        
Jul 18 22:15 Calm 10 Clear CLR 73 71     92%   74 29.98        
Jul 18 21:55 Calm 10 Clear CLR 73 71     91%   75 29.98        
Jul 18 21:35 Calm 10 Clear CLR 75 71     88%   76 29.97        
Jul 18 21:15 Calm 10 Clear CLR 76 71     84%   77 29.97        
Jul 18 20:55 Calm 10 Clear CLR 75 72     89%   77 29.95        
Jul 18 20:35 Calm 10 Clear CLR 76 72     85%   78 29.95        
Jul 18 20:15 Calm 10 Clear CLR 78 72     80%   80 29.94        
Jul 18 19:55 Calm 10 Clear CLR 79 71     78%   82 29.94        
Jul 18 19:35 N 5 10 Clear CLR 80 71     74%   84 29.94        
Jul 18 19:15 N 3 10 Clear CLR 83 70     65%   87 29.94        
Jul 18 18:55 NNE 5 10 Clear CLR 84 70     62%   89 29.94        
Jul 18 18:35 NNE 7 10 Clear CLR 86 71     60%   91 29.94        
Jul 18 18:15 NNE 5 10 Clear CLR 85 72     64%   91 29.94        
Jul 18 17:55 NE 5 10 Clear CLR 86 72     64%   92 29.95        
Jul 18 17:35 NNE 6 10 Clear CLR 87 71     60%   92 29.95        
Jul 18 17:15 NNE 5 10 Clear CLR 88 72     61%   95 29.95        
Jul 18 16:55 N 8 10 Partly Cloudy SCT048 SCT055 88 71     57%   94 29.94        
Jul 18 16:35 NNE 6 10 Partly Cloudy SCT049 89 69     53%   94 29.94        
Jul 18 16:15 N 7 10 Partly Cloudy SCT049 90 71     53%   96 29.94        
Jul 18 15:55 N 8 10 Partly Cloudy SCT050 90 71     53%   97 29.94        
Jul 18 15:35 N 10 10 Partly Cloudy SCT050 91 70     51%   97 29.95        
Jul 18 15:15 NNE 7 10 Clear CLR 91 69     48%   96 29.96        
Jul 18 14:55 N 6 10 Clear CLR 90 69     49%   95 29.97        
Jul 18 14:35 Calm 10 Clear CLR 90 70     51%   96 29.97        
Jul 18 14:15 NNW 5 10 Clear CLR 90 70     52%   96 29.98        
Jul 18 13:55 Calm 10 Partly Cloudy SCT035 SCT047 87 72     61%   95 29.99        
Jul 18 13:35 W 5 10 Mostly Cloudy BKN037 87 73     62%   94 29.99        
Jul 18 13:15 NW 6 10 Clear CLR 88 74     65%   97 29.99        
Jul 18 12:55 NNW 9 10 Clear CLR 88 73     61%   96 29.99       0
Jul 18 12:35 NNW 6 10 Clear CLR 88 73     62%   95 30        
Jul 18 12:15 E 3 10 Clear CLR 87 72     61%   93 30        
Jul 18 11:55 Calm 10 Clear CLR 87 72     63%   93 30.01        
Jul 18 11:35 Calm 10 Clear CLR 85 73     67%   93 30.02        
Jul 18 11:15 E 3 7 Clear CLR 85 74     70%   93 30.02        
Jul 18 10:55 ENE 6 10 Clear CLR 83 74     73%   90 30.03        
Jul 18 10:35 Calm 10 Clear CLR 83 73     73%   89 30.03        
Jul 18 10:15 Calm 10 Clear CLR 82 74     77%   88 30.02        
Jul 18 09:55 ESE 3 10 Clear CLR 81 74     80%   86 30.02     0  
Jul 18 09:35 E 3 10 Clear CLR 79 73     82%   83 30.03        
Jul 18 09:15 ENE 3 10 Partly Cloudy SCT005 78 74     87%   79 30.03        
Jul 18 08:55 ENE 5 7 Mostly Cloudy BKN003 76 73     91%   77 30.04   0    
Jul 18 08:35 Calm 5 Fog/Mist OVC003 74 72     94%   76 30.04   0    
Jul 18 08:15 Calm 7 Fog/Mist OVC003 73 72     95%   75 30.04   0    
Jul 18 07:55 Calm 5 Fog/Mist OVC003 72 71     96%   74 30.03        
Jul 18 07:35 Calm 5 Clear   72 71     96%   74 30.03        
Jul 18 07:15 Calm 7 Clear   72 71     96%   74 30.03        
Jul 18 06:55 Calm 5 Clear   72 71     97%   73 30.02        
Jul 18 06:35 Calm 5 Fog/Mist CLR 72 71     98%   73 30.02        
Jul 18 06:15 Calm 5 Fog/Mist CLR 71 71     98%   73 30.01        
Jul 18 05:55 Calm 5 Fog/Mist CLR 71 70     98%   72 30.01        
Jul 18 05:35 N 3 4 Fog/Mist CLR 71 70     98%   72 30        
Jul 18 05:15 Calm 7 Clear CLR 72 71     97%   73 30        
Jul 18 04:55 Calm 7 Clear CLR 72 71     97%   74 29.99        
Jul 18 04:35 Calm 10 Clear CLR 72 71     96%   74 29.99        
Jul 18 04:15 Calm 10 Clear CLR 73 71     95%   74 29.98        
Jul 18 03:55 Calm 7 Clear CLR 73 72     97%   74 29.98        
Jul 18 03:35 Calm 10 Clear CLR 73 72     96%   74 29.98        
Jul 18 03:15 N 3 10 Clear CLR 73 72     96%   74 29.98        
Jul 18 02:55 NNE 5 10 Clear CLR 73 72     96%   75 29.98        
Jul 18 02:35 N 7 5 Fog/Mist CLR 72 72     98%   74 29.97        
Jul 18 02:15 Calm 5 Fog/Mist CLR 73 72     98%   74 29.98        
Jul 18 01:55 Calm 7 Clear CLR 73 72     97%   75 29.98        
Jul 18 01:35 Calm 5 Fog/Mist CLR 74 73     98%   75 29.99        
Jul 18 01:15 N 3 7 Partly Cloudy SCT043 74 73     98%   75 30        
Jul 18 00:55 Calm 10 Partly Cloudy SCT041 74 73     96%   76 30.01        
Jul 18 00:35 Calm 10 Clear CLR 75 73     96%   76 30.01        
Jul 18 00:15 Calm 10 Clear CLR 75 74     96%   77 30.01        
Jul 17 23:55 Calm 10 Clear CLR 75 74     96%   77 30.01        
Jul 17 23:35 ENE 3 10 Clear CLR 75 74     95%   77 30.02        
Jul 17 23:15 ENE 3 10 Partly Cloudy SCT049 SCT120 76 74     95%   77 30.02        
Jul 17 22:55 Calm 10 Partly Cloudy SCT049 SCT120 77 74     91%   78 30.02        
Jul 17 22:35 Calm 10 Partly Cloudy SCT120 76 74     94%   78 30.03        
Jul 17 22:15 Calm 10 Clear CLR 76 74     95%   77 30.02        
Jul 17 21:55 E 3 10 Clear CLR 76 74     95%   77 30.01        
Jul 17 21:35 ESE 3 10 Clear CLR 76 74     94%   78 30.01        
Jul 17 21:15 Calm 10 Partly Cloudy SCT120 77 74     91%   78 30.01        
Jul 17 20:55 Calm 10 Mostly Cloudy BKN120 77 74     91%   79 30.01        
Jul 17 20:35 Calm 10 Cloudy SCT045 OVC120 78 74     89%   80 30.01        
Jul 17 20:15 Calm 10 Mostly Cloudy SCT045 SCT060 BKN120 78 74     87%   80 30.01        
Jul 17 19:55 W 3 10 Mostly Cloudy BKN047 BKN060 BKN120 78 74     87%   79 30        
Jul 17 19:35 SSW 6 10 Mostly Cloudy SCT047 BKN050 BKN060 79 73     84%   82 30        
Jul 17 19:15 SSW 5 10 Clear CLR 80 74     83%   84 29.99        
Jul 17 18:55 SSW 5 10 Partly Cloudy SCT100 80 73     81%   84 29.99        
Jul 17 18:35 S 6 10 Mostly Cloudy SCT075 BKN100 81 73     78%   85 30        
Jul 17 18:15 SSW 8 10 Mostly Cloudy SCT043 SCT050 BKN075 81 75     84%   86 30        
Jul 17 17:55 W 5 10 Cloudy SCT028 BKN041 OVC050 80 74     81%   85 30        
Jul 17 17:35 WNW 10 10 Mostly Cloudy SCT030 SCT037 BKN120 82 73     74%   87 29.99        
Jul 17 17:15 W 10 10 Partly Cloudy SCT080 SCT110 83 72     69%   88 29.98        
Jul 17 16:55 W 9 10 Partly Cloudy SCT028 SCT045 SCT095 84 73     70%   90 29.97        
Jul 17 16:35 W 9 10 Light Rain SCT025 SCT040 BKN060 85 77     77%   95 29.95        
Jul 17 16:15 W 8 10 Partly Cloudy SCT080 87 76     70%   97 29.97        
Jul 17 15:55 W 9 10 Partly Cloudy SCT038 SCT049 SCT090 87 75     67%   97 29.97        
Jul 17 15:35 W 8 10 Partly Cloudy SCT038 89 75     63%   99 29.97        
Jul 17 15:15 W 7 10 Partly Cloudy SCT038 SCT060 SCT110 88 74     63%   97 29.97        
Jul 17 14:55 W 7 10 Mostly Cloudy SCT037 SCT060 BKN110 89 73     61%   97 29.98        
Jul 17 14:35 W 7 10 Partly Cloudy SCT037 SCT055 88 74     64%   97 29.98        
Jul 17 14:15 W 8 10 Partly Cloudy SCT031 SCT055 89 76     66%   100 29.99        
Jul 17 13:55 WNW 8 10 Partly Cloudy SCT028 88 75     66%   98 30        
Jul 17 13:35 WSW 8 10 Partly Cloudy SCT026 SCT100 88 77     69%   100 30        
Jul 17 13:15 W 9 10 Clear CLR 87 77     74%   98 30.01        
Jul 17 12:55 W 6 10 Partly Cloudy SCT014 SCT110 85 78     79%   96 30.02       0
Jul 17 12:35 WNW 8 10 Partly Cloudy SCT012 SCT120 83 77     81%   93 30.03        
Jul 17 12:15 WNW 8 10 Mostly Cloudy SCT012 BKN120 83 77     83%   92 30.04        
Jul 17 11:55 NNW 9 10 Mostly Cloudy BKN012 BKN017 BKN120 83 78     84%   93 30.04        
Jul 17 11:35 N 9 10 Mostly Cloudy BKN012 SCT017 84 78     83%   95 30.04        
Jul 17 11:15 NNW 8 7 Haze SCT014 BKN024 85 78     81%   97 30.03        
Jul 17 10:55 N 11 10 Mostly Cloudy BKN016 BKN025 BKN120 83 78     83%   93 30.03        
Jul 17 10:35 Calm 10 Partly Cloudy SCT120 84 77     79%   93 30.04        
Jul 17 10:15 Calm 10 Partly Cloudy SCT008 83 76     81%   91 30.04        
Jul 17 09:55 Calm 10 Partly Cloudy SCT008 81 76     84%   88 30.04   0 0  
Jul 17 09:35 SW 6 7 Mostly Cloudy BKN006 80 76     89%   84 30.05   0    
Jul 17 09:15 SW 6 7 Fog/Mist OVC006 78 75     91%   79 30.05        
Jul 17 08:55 SSW 5 7 Fog/Mist OVC004 77 74     92%   78 30.06        
Jul 17 08:35 SSW 5 7 Fog/Mist OVC004 76 74     93%   78 30.06        
Jul 17 08:15 S 6 7 Cloudy OVC004 76 73     92%   77 30.06        
Jul 17 07:55 SSE 7 10 Cloudy OVC004 76 73     91%   77 30.06        
Jul 17 07:35 SE 5 7 Cloudy OVC004 75 73     94%   77 30.05        
Jul 17 07:15 SSW 3 7 Fog/Mist OVC004 75 73     95%   76 30.05        
Jul 17 06:55 SSW 5 7 Fog/Mist OVC004 75 73     95%   76 30.04        
Jul 17 06:35 SSW 3 7 Cloudy OVC004 75 73     95%   76 30.04        
Jul 17 06:15 S 5 10 Cloudy OVC004 75 73     94%   76 30.03        
Jul 17 05:55 S 3 10 Cloudy OVC006 74 73     95%   76 30.03        
Jul 17 05:35 Calm 7 Fog/Mist OVC006 73 72     98%   75 30.02        
Jul 17 05:15 Calm 7 Cloudy OVC006 73 72     98%   74 30.02        
Jul 17 04:55 Calm 10 Cloudy OVC006 72 72     98%   74 30.01        
Jul 17 04:35 Calm 10 Clear   72 71     98%   73 30.01        
Jul 17 04:15 Calm 5 Clear   71 71     98%   73 30.01        
Jul 17 03:55 Calm 10 Clear   73 72     96%   75 30.01        
Jul 17 03:35 ESE 5 7 Clear CLR 73 72     98%   74 30.01        
Jul 17 03:15 Calm 7 Clear CLR 73 72     94%   75 30.01        
Jul 17 02:55 Calm 10 Partly Cloudy SCT008 SCT020 73 72     97%   74 30.01        
Jul 17 02:35 Calm 10 Cloudy SCT008 OVC020 73 72     96%   75 30.01        
Jul 17 02:15 Calm 7 Cloudy OVC020 73 72     98%   74 30.02        
Jul 17 01:55 Calm 7 Fog/Mist BKN020 72 71     98%   73 30.02        
Jul 17 01:35 Calm 7 Fog/Mist SCT006 72 72     98%   74 30.01        
Jul 17 01:15 Calm 7 Fog/Mist SCT006 73 72     98%   75 30.01        
Jul 17 00:55 Calm 10 Clear CLR 73 72     96%   75 30.01       0
Jul 17 00:35 Calm 7 Fog/Mist CLR 72 72     98%   74 30.01        
Jul 17 00:15 Calm 7 Fog/Mist CLR 73 72     97%   75 30.01        
Jul 16 23:55 ESE 3 7 Clear CLR 74 73     97%   76 30.01        
Jul 16 23:35 Calm 10 Clear CLR 74 73     96%   76 30.01        
Jul 16 23:15 Calm 10 Clear CLR 74 73     96%   76 30.02        
Jul 16 22:55 S 3 10 Clear CLR 76 73     92%   77 30.03        
Jul 16 22:35 Calm 10 Clear CLR 75 73     94%   76 30.04        
Jul 16 22:15 Calm 10 Clear CLR 75 73     93%   77 30.04        
Jul 16 21:55 Calm 10 Clear CLR 75 74     95%   77 30.04   0 0  
Jul 16 21:35 Calm 10 Clear CLR 76 74     93%   78 30.03   0    
Jul 16 21:15 Calm 10 Clear CLR 77 74     89%   79 30.02        
Jul 16 20:55 SE 3 10 Clear CLR 76 74     93%   78 30.01        
Jul 16 20:35 Calm 10 Clear CLR 79 74     87%   82 30.01        
Jul 16 20:15 Calm 10 Clear CLR 80 73     81%   83 30.01        
Jul 16 19:55 Calm 10 Clear CLR 80 73     79%   85 30   0    
Jul 16 19:35 WSW 3 10 Clear CLR 82 73     74%   87 29.99   0    
Jul 16 19:15 WSW 6 10 Clear CLR 83 73     72%   90 29.99   0    
Jul 16 18:55 W 7 10 Clear CLR 84 72     68%   90 29.99   0   0
Jul 16 18:35 WSW 8 10 Clear CLR 85 73     68%   91 29.99   0    
Jul 16 18:15 WSW 5 10 Partly Cloudy SCT030 85 72     65%   91 29.99        
Jul 16 17:55 SSW 6 10 Mostly Cloudy BKN030 85 74     68%   93 29.98   0    
Jul 16 17:35 Calm 10 Partly Cloudy SCT032 84 73     69%   91 29.98   0    
Jul 16 17:15 W 5 10 Partly Cloudy SCT029 SCT034 85 73     69%   91 29.98   0    
Jul 16 16:55 W 6 10 Mostly Cloudy BKN031 85 73     68%   92 29.98   0    
Jul 16 16:35 Calm 10 Mostly Cloudy BKN031 BKN035 84 73     70%   90 29.98   0    
Jul 16 16:15 WSW 3 10 Partly Cloudy SCT029 83 72     69%   88 29.99        
Jul 16 15:55 Calm 10 Partly Cloudy SCT027 84 72     67%   89 29.98   0 0  
Jul 16 15:35 SW 3 10 Clear CLR 83 72     68%   89 29.98   0    
Jul 16 15:15 SW 7 10 Partly Cloudy SCT023 84 71     67%   89 30        
Jul 16 14:55 S 3 10 Clear CLR 83 74     73%   89 30.01   0    
Jul 16 14:35 Calm 10 Partly Cloudy SCT016 82 74     75%   88 30.02   0    
Jul 16 14:15 SSW 5 10 Partly Cloudy SCT016 81 73     78%   86 30.03   0    
Jul 16 13:55 SSW 6 10 Partly Cloudy SCT014 80 74     81%   85 30.05   0    
Jul 16 13:35 SSW 7 10 Partly Cloudy SCT014 80 74     82%   85 30.05   0    
Jul 16 13:15 SSW 5 10 Partly Cloudy SCT014 80 74     82%   84 30.06   0    
Jul 16 12:55 Calm 10 Partly Cloudy SCT012 79 73     82%   83 30.06   0   0
Jul 16 12:35 S 3 10 Mostly Cloudy BKN010 80 75     85%   84 30.07   0    
Jul 16 12:15 SSW 5 10 Mostly Cloudy BKN008 BKN014 78 74     88%   80 30.07        
Jul 16 11:55 S 3 10 Mostly Cloudy BKN008 BKN014 77 74     90%   79 30.07   0    
Jul 16 11:35 W 3 10 Cloudy BKN008 OVC012 76 74     92%   78 30.08   0    
Jul 16 11:15 Calm 10 Cloudy BKN006 OVC100 76 74     94%   77 30.08   0    
Jul 16 10:55 Calm 10 Mostly Cloudy SCT006 SCT100 BKN120 75 74     96%   77 30.08        
Jul 16 10:35 Calm 10 Mostly Cloudy SCT095 BKN120 75 73     95%   77 30.09        
Jul 16 10:15 Calm 10 Cloudy SCT016 BKN055 OVC090 74 72     95%   76 30.09        
Jul 16 09:55 W 8 1.25 Heavy Rain and Fog/Mist SCT010 BKN017 OVC050 74 72     95%   75 30.1        
Jul 16 09:35 S 6 4 Heavy Rain and Fog/Mist SCT013 BKN050 OVC070 74 73     95%   76 30.09        
Jul 16 09:15 W 9 1.75 Heavy Rain and Fog/Mist BKN013 BKN017 OVC027 73 72     96%   75 30.1        
Jul 16 08:50 W 5 10 Cloudy SCT016 OVC032 78 72     84%   79 30.09        
Jul 16 08:35 Calm 10 Cloudy BKN030 OVC049 78 72     83%   79 30.08        
Jul 16 08:15 SW 3 10 Mostly Cloudy SCT032 BKN049 78 72     83%   79 30.07        
May 15 10:55 SSW 8 10 Clear CLR 85 68     56%   88 30        
Notice The following observation data may not be complete
May 15 09:55   10 Clear CLR          %              
May 14 19:55 ESE 3 10 Clear   78 66     66%   78 29.95        
May 14 17:35 N 3 10 Clear CLR 88 61     41%   88 29.96        
May 14 09:55 N 3 10 Clear CLR 82 66     59%   84 30.08        
May 14 02:35 Calm 7 Clear CLR 65 64     97%     30.03        
May 14 01:15 Calm 10 Clear CLR 66 65     95%     30.06        
May 14 00:55 Calm 10 Clear CLR 66 64     94%     30.06        
May 14 00:15 Calm 10 Clear CLR 67 65     93%     30.08        
May 13 23:35 Calm 10 Clear CLR 68 66     92%     30.08        
May 13 10:15 WSW 8 10 Clear CLR 83 62     49%   84 30.16        
Notice The following observation data may not be complete
May 13 02:55   10 Clear CLR          %              
May 13 00:35 Calm 10 Clear CLR 63 60     90%     30.09        
May 12 23:55 SSE 3 10 Clear CLR 66 61     84%     30.08        
May 12 21:15 Calm 10 Clear CLR 69 62     78%     30.1        
May 12 17:15 SSW 8 10 Clear CLR 86 56     36%   85 30.09        
May 12 16:55 WNW 8 10 Clear CLR 86 56     36%   85 30.09        
May 12 16:35 NW 7 10 Clear CLR 87 56     35%   85 30.09        
Notice The following observation data may not be complete
May 12 15:35   10 Clear CLR          %              
May 11 21:35 S 8 10 Clear CLR 74 58     59%   73 30.06        
May 11 21:15 S 6 10 Clear CLR 73 60     63%   73 30.06        
May 11 17:15 SW 14 10 Clear CLR 87 60     41%   86 30.05        
Notice The following observation data may not be complete
May 11 13:15   10 Clear CLR          %              
Notice The following observation data may not be complete
Jun 12 08:35   10 Mostly Cloudy SCT018 BKN026 BKN100          %              
Jun 12 04:15 Calm 10 Clear CLR 72 66     83%   72 30.12        
Jun 12 04:00 Calm 10 Clear CLR 72 66     83%   72 30.12        
Jun 12 00:15 Calm 10 Clear CLR 70 66     88%     30.12        
Jun 11 12:55 SE 7 10 Partly Cloudy SCT047 SCT055 86        %     30.16        
Jun 11 11:55 SSE 9 10 Partly Cloudy SCT065 84        %     30.17        
Jun 11 06:55 ESE 3 10 Clear CLR 68 61     78%     30.14        
Jun 11 02:35 Calm 10 Clear   63 61     94%     30.1        
Jun 11 02:15 Calm 10 Clear CLR 63 61     94%     30.11        
Jun 09 23:35 Calm 10 Partly Cloudy SCT060 63 59     88%     30.01        
Jun 09 21:35 Calm 10 Clear CLR 64 59     83%     29.98        
Jun 09 20:15 Calm 10 Clear CLR 70 59     69%     29.95        
Notice The following observation data may not be complete
Jun 09 19:15   10 Clear CLR          %              
Jun 09 18:55 Calm 10 Clear CLR 79        %     29.94        
Jun 09 16:35 Calm 10 Clear CLR 79        %     29.95        
Jun 09 10:15 ESE 3 10 Clear CLR 73 55     53%   73 30        
Notice The following observation data may not be complete
Jun 09 04:35   10 Clear CLR          %              
Jun 09 03:35 Calm 10 Clear CLR 55 54     94%     29.93        
Jun 08 21:35 Calm 10 Clear CLR 63 54     72%     29.92        
Jun 08 20:35 N 3 10 Clear CLR 68 54     60%     29.9        
Jun 08 07:55 N 6 10 Clear CLR 61 54     77%     29.96        
Jun 08 06:55 Calm 10 Clear CLR 57 54     88%     29.94        
Jun 07 14:55 N 13 10 Partly Cloudy SCT060 77        %     29.88        
Jun 07 13:55 NNE 11 10 Partly Cloudy SCT060 79        %     29.88        
Jun 07 12:35 NNE 11 10 Clear   77        %     29.9        
Notice The following observation data may not be complete
Jun 06 15:15   10 Clear CLR          %              
Jun 06 07:15 Calm 10 Mostly Cloudy SCT060 BKN080 68 68     100%     29.83        
Jun 06 06:55 Calm 7 Light Rain SCT033 BKN060 OVC085 68 68     100%     29.84   0    
Jun 06 05:55 Calm 10 Light Rain BKN003 OVC009 68 68     100%     29.83        
Jun 06 03:55 Calm 10 Mostly Cloudy BKN007 BKN110 68 66     94%     29.81        
Jun 05 19:15 Calm 10 Light Drizzle SCT050 73 68     83%   74 29.8